This demonstration page uses our WeatherBlox Daily Observations layout. Learn more.

40.92945, -100.16068

Hourly Observations for August 12, 2019

Temp ( °F °C ) Dew Point ( °F °C ) Humidity (%) Winds ( mph kmh ) Pressure ( in mb ) Visibility ( mi km ) Precip ( " mm )
12:15 am 00:15 Cloudy with Heavy Thunderstorms 65 18.5 65 18.2 98 98 W 32 52 29.83 1010 1.25 2.01168 0.83 21.082
12:35 am 00:35 Cloudy 67 19.2 66 18.7 97 97 NW 23 37 29.83 1010 2.5 4.02336 1.1 27.94
12:55 am 00:55 Cloudy 68 19.8 67 19.4 98 98 N 18 30 29.8 1009 7 11.265408 1.22 30.988
1:15 am 01:15 Mostly Cloudy with Thunderstorms 68 19.9 66 19.1 95 95 N 10 17 29.77 1008 10 16.09344 0.02 0.508
1:35 am 01:35 Partly Cloudy 67 19.7 67 19.2 97 97 N 10 17 29.77 1008 10 16.09344 0.04 1.016
1:55 am 01:55 Mostly Cloudy with Light Rain 67 19.7 66 19 96 96 N 5 7 29.77 1008 10 16.09344 0.06 1.524
2:15 am 02:15 Cloudy with Light Rain 68 19.8 66 19.1 96 96 Calm 29.77 1008 10 16.09344 0.01 0.254
2:35 am 02:35 Mostly Cloudy with Light Rain 67 19.7 67 19.2 97 97 SW 6 9 29.77 1008 10 16.09344 0.02 0.508
2:55 am 02:55 Partly Cloudy with Light Rain 67 19.5 67 19.3 99 99 SSW 8 13 29.77 1008 10 16.09344 0.02 0.508
3:15 am 03:15 Clear 67 19.3 66 19.1 99 99 Calm 29.77 1008 10 16.09344 0 0
3:35 am 03:35 Clear 67 19.5 67 19.2 98 98 WSW 6 9 29.77 1008 10 16.09344 0 0
3:55 am 03:55 Clear 67 19.2 66 19.1 99 99 W 7 11 29.77 1008 10 16.09344 0 0
4:15 am 04:15 Clear 66 19 66 18.8 99 99 WSW 3 6 29.77 1008 10 16.09344 0 0
4:35 am 04:35 Clear 65 18.6 65 18.6 100 100 Calm 29.77 1008 10 16.09344 0 0
4:55 am 04:55 Clear 64 18 64 18 100 100 Calm 29.8 1009 10 16.09344 0 0
5:15 am 05:15 Clear 64 18 64 18 100 100 N 3 6 29.8 1009 7 11.265408 0 0
5:35 am 05:35 Clear 64 18 64 18 100 100 NNW 3 6 29.8 1009 7 11.265408 0 0
5:55 am 05:55 Clear with Mist and Fog 64 18 64 18 100 100 N 6 9 29.8 1009 5 8.04672 0 0
6:15 am 06:15 Clear with Mist and Fog 64 18 64 18 100 100 Calm 29.8 1009 5 8.04672 0 0
6:35 am 06:35 Clear with Mist and Fog 64 18 64 18 100 100 Calm 29.83 1010 4 6.437376 0 0
6:55 am 06:55 Mostly Cloudy with Mist and Fog 64 17.8 64 17.8 100 100 NNW 5 7 29.83 1010 1.5 2.414016 0 0
7:15 am 07:15 Mostly Cloudy with Mist and Fog 64 17.5 64 17.5 100 100 WNW 3 6 29.83 1010 1.25 2.01168 0 0
7:35 am 07:35 Sunny with Mist and Fog 65 18.5 65 18.5 100 100 WNW 3 6 29.83 1010 3 4.828032 0 0
7:55 am 07:55 Sunny with Mist and Fog 67 19.5 67 19.5 100 100 Calm 29.8 1009 5 8.04672 0 0
8:15 am 08:15 Partly Cloudy with Mist and Fog 68 19.9 67 19.7 99 99 WSW 3 6 29.83 1010 5 8.04672 0 0
8:35 am 08:35 Sunny 68 20.1 68 19.9 99 99 Calm 29.83 1010 10 16.09344 0 0
8:55 am 08:55 Sunny 70 21.1 69 20.4 96 96 W 3 6 29.83 1010 10 16.09344 0 0
9:15 am 09:15 Sunny 71 21.6 68 20.2 92 92 Calm 29.83 1010 10 16.09344 0 0
9:35 am 09:35 Sunny 73 22.5 69 20.6 89 89 Calm 29.8 1009 10 16.09344 0 0
9:55 am 09:55 Sunny 73 22.8 69 20.4 86 86 WSW 3 6 29.8 1009 10 16.09344 0 0
10:15 am 10:15 Sunny 74 23.5 70 20.9 85 85 W 5 7 29.8 1009 10 16.09344 0 0
10:35 am 10:35 Sunny 75 24 69 20.4 80 80 Calm 29.8 1009 10 16.09344 0 0
10:55 am 10:55 Sunny 77 24.8 69 20.7 78 78 WSW 3 6 29.8 1009 10 16.09344 0 0
11:15 am 11:15 Sunny 77 25.1 69 20.8 77 77 W 5 7 29.8 1009 10 16.09344 0 0
11:35 am 11:35 Sunny 78 25.5 70 21 76 76 WNW 3 6 29.8 1009 10 16.09344 0 0
11:55 am 11:55 Sunny 78 25.8 71 21.7 78 78 NW 3 6 29.8 1009 10 16.09344 0 0
12:15 pm 12:15 Partly Cloudy 78 25.5 70 21.2 77 77 NNW 3 6 29.8 1009 10 16.09344 0 0
12:35 pm 12:35 Partly Cloudy 78 25.8 71 21.4 77 77 NW 3 6 29.83 1010 10 16.09344 0 0
12:55 pm 12:55 Mostly Cloudy 79 26.2 72 22.1 78 78 N 6 9 29.83 1010 10 16.09344 0 0
1:15 pm 13:15 Partly Cloudy 80 26.5 71 21.9 76 76 NNW 7 11 29.8 1009 10 16.09344 0 0
1:35 pm 13:35 Partly Cloudy 80 26.5 72 22.2 77 77 WNW 6 9 29.8 1009 10 16.09344 0 0
1:55 pm 13:55 Partly Cloudy 82 27.7 72 22.4 73 73 Calm 29.8 1009 10 16.09344 0 0
2:15 pm 14:15 Mostly Cloudy 80 26.9 72 22.4 76 76 NNW 3 6 29.8 1009 10 16.09344 0 0
2:35 pm 14:35 Partly Cloudy 83 28.2 72 22.1 70 70 NNW 8 13 29.8 1009 10 16.09344 0 0
2:55 pm 14:55 Mostly Cloudy 82 27.8 72 22.1 71 71 N 7 11 29.8 1009 10 16.09344 0 0
3:15 pm 15:15 Mostly Cloudy 84 28.8 73 22.6 69 69 NNW 7 11 29.8 1009 10 16.09344 0 0
3:35 pm 15:35 Mostly Cloudy 83 28.6 72 22.1 68 68 N 7 11 29.8 1009 10 16.09344 0 0
3:55 pm 15:55 Partly Cloudy 83 28.2 71 21.6 67 67 NNW 8 13 29.8 1009 10 16.09344 0 0
4:15 pm 16:15 Mostly Cloudy 83 28.6 71 21.5 65 65 NNW 9 15 29.8 1009 10 16.09344 0 0
4:35 pm 16:35 Partly Cloudy 84 28.8 71 21.5 65 65 NNW 7 11 29.8 1009 10 16.09344 0 0
4:55 pm 16:55 Partly Cloudy 83 28.5 71 21.7 67 67 NW 6 9 29.8 1009 10 16.09344 0 0
5:15 pm 17:15 Partly Cloudy 84 29 71 21.5 64 64 NNW 6 9 29.8 1009 10 16.09344 0 0
5:35 pm 17:35 Sunny 84 28.7 69 20.5 61 61 NNW 5 7 29.8 1009 10 16.09344 0 0
5:55 pm 17:55 Sunny 83 28.5 71 21.6 66 66 NW 5 7 29.8 1009 10 16.09344 0 0
6:15 pm 18:15 Sunny 82 27.7 70 21.1 67 67 Calm 29.8 1009 10 16.09344 0 0
6:35 pm 18:35 Sunny 82 28 70 21.1 66 66 Calm 29.8 1009 10 16.09344 0 0
6:55 pm 18:55 Mostly Cloudy 82 27.6 71 21.4 69 69 NNW 7 11 29.8 1009 10 16.09344 0 0
7:15 pm 19:15 Partly Cloudy 82 27.5 71 21.7 71 71 N 8 13 29.8 1009 10 16.09344 0 0
7:35 pm 19:35 Sunny 81 27 71 21.6 72 72 NNE 6 9 29.8 1009 10 16.09344 0 0
7:55 pm 19:55 Sunny 79 26.2 71 21.7 76 76 NNE 5 7 29.85 1011 10 16.09344 0 0
8:15 pm 20:15 Sunny 77 25.1 70 21.3 80 80 N 6 9 29.85 1011 10 16.09344 0 0
8:35 pm 20:35 Sunny 74 23.6 70 21.1 86 86 N 5 7 29.85 1011 10 16.09344 0 0
8:55 pm 20:55 Clear 73 23 69 20.8 87 87 NNE 5 7 29.88 1012 10 16.09344 0 0
9:15 pm 21:15 Clear 72 22 69 20.7 92 92 NE 5 7 29.88 1012 10 16.09344 0 0
9:35 pm 21:35 Clear 72 22.1 69 20.5 91 91 NE 5 7 29.88 1012 10 16.09344 0 0
9:55 pm 21:55 Clear 71 21.5 68 20.2 92 92 NNE 6 9 29.91 1013 10 16.09344 0 0
10:15 pm 22:15 Clear 70 21.1 68 20 93 93 NNE 5 7 29.91 1013 10 16.09344 0 0
10:35 pm 22:35 Clear 70 21 68 19.9 93 93 NE 6 9 29.91 1013 10 16.09344 0 0
10:55 pm 22:55 Clear 69 20.4 67 19.7 96 96 Calm 29.91 1013 10 16.09344 0 0
11:15 pm 23:15 Clear 68 20 67 19.5 97 97 N 3 6 29.97 1015 10 16.09344 0 0
11:35 pm 23:35 Clear 67 19.4 67 19.2 99 99 Calm 29.97 1015 10 16.09344 0 0
11:55 pm 23:55 Clear 67 19.3 66 18.9 98 98 Calm 29.97 1015 10 16.09344 0 0

Powered by AerisWeather